Export;EXP-2023-01 (20230706 20:37);;;StationsCode;NL49551;NL49553
Periode;20160101 00:00 - 20170101 00:00;;;BeheerderMeetStation;GGD A'dam;GGD A'dam
Bron;https://data.rivm.nl/data/luchtmeetnet;;;StationsNaam;IJmuiden-Kanaaldijk;Wijk aan Zee-Burgemeester Rothestraat
Beschrijving data;https://data.rivm.nl/data/luchtmeetnet/readme.pdf;;;Latitude,Longitude;(52.463039,4.601842);(52.493992,4.601986)
Accreditatienummer;https://www.rva.nl/alle-geaccrediteerden/;;;StationsGebied;stad;stad
;;;;StationsType;industrie;industrie
;;;;Meetprincipe;Ultraviolet fluorescentie (UV-F);Ultraviolet fluorescentie (UV-F)
;;;;Meetopstelling;H2S metingen met een Thermo monitor;H2S metingen met een Thermo monitor
;;;;Accreditatienummer;nvt;nvt
Component;Bep.periode;Eenheid; Begindatumtijd;Einddatumtijd;NL49551;NL49553
H2S;uur;�g/m�;20160101 00:00;20160101 01:00;1;3.3
H2S;uur;�g/m�;20160101 01:00;20160101 02:00;0.4;0
H2S;uur;�g/m�;20160101 02:00;20160101 03:00;0.4;0
H2S;uur;�g/m�;20160101 03:00;20160101 04:00;0.5;0
H2S;uur;�g/m�;20160101 04:00;20160101 05:00;0.5;0
H2S;uur;�g/m�;20160101 05:00;20160101 06:00;0.5;0
H2S;uur;�g/m�;20160101 06:00;20160101 07:00;0.5;0
H2S;uur;�g/m�;20160101 07:00;20160101 08:00;0.9;0
H2S;uur;�g/m�;20160101 08:00;20160101 09:00;0.8;0
H2S;uur;�g/m�;20160101 09:00;20160101 10:00;0.5;0
H2S;uur;�g/m�;20160101 10:00;20160101 11:00;0.5;0
H2S;uur;�g/m�;20160101 11:00;20160101 12:00;0.6;0
H2S;uur;�g/m�;20160101 12:00;20160101 13:00;0.6;0
H2S;uur;�g/m�;20160101 13:00;20160101 14:00;0.9;0.1
H2S;uur;�g/m�;20160101 14:00;20160101 15:00;0.7;
H2S;uur;�g/m�;20160101 15:00;20160101 16:00;0.8;0.2
H2S;uur;�g/m�;20160101 16:00;20160101 17:00;0.5;0.1
H2S;uur;�g/m�;20160101 17:00;20160101 18:00;0.9;0.1
H2S;uur;�g/m�;20160101 18:00;20160101 19:00;0.8;0.3
H2S;uur;�g/m�;20160101 19:00;20160101 20:00;0.7;0.3
H2S;uur;�g/m�;20160101 20:00;20160101 21:00;0.9;0.2
H2S;uur;�g/m�;20160101 21:00;20160101 22:00;1;0.2
H2S;uur;�g/m�;20160101 22:00;20160101 23:00;1.2;0.2
H2S;uur;�g/m�;20160101 23:00;20160102 00:00;1.5;0.2
H2S;uur;�g/m�;20160102 00:00;20160102 01:00;0.8;0.2
H2S;uur;�g/m�;20160102 01:00;20160102 02:00;1;0.2
H2S;uur;�g/m�;20160102 02:00;20160102 03:00;1;0.2
H2S;uur;�g/m�;20160102 03:00;20160102 04:00;0.7;0.3
H2S;uur;�g/m�;20160102 04:00;20160102 05:00;0.9;0.2
H2S;uur;�g/m�;20160102 05:00;20160102 06:00;0.6;0.1
H2S;uur;�g/m�;20160102 06:00;20160102 07:00;0.8;0.1
H2S;uur;�g/m�;20160102 07:00;20160102 08:00;0.8;0
H2S;uur;�g/m�;20160102 08:00;20160102 09:00;0.8;0.1
H2S;uur;�g/m�;20160102 09:00;20160102 10:00;0.7;0.2
H2S;uur;�g/m�;20160102 10:00;20160102 11:00;0.5;0.1
H2S;uur;�g/m�;20160102 11:00;20160102 12:00;0.6;0.3
H2S;uur;�g/m�;20160102 12:00;20160102 13:00;0.8;0.1
H2S;uur;�g/m�;20160102 13:00;20160102 14:00;0.5;0
H2S;uur;�g/m�;20160102 14:00;20160102 15:00;0.9;0.1
H2S;uur;�g/m�;20160102 15:00;20160102 16:00;0.6;0.2
H2S;uur;�g/m�;20160102 16:00;20160102 17:00;0.5;0.2
H2S;uur;�g/m�;20160102 17:00;20160102 18:00;0.5;0.3
H2S;uur;�g/m�;20160102 18:00;20160102 19:00;;0.3
H2S;uur;�g/m�;20160102 19:00;20160102 20:00;1;0.3
H2S;uur;�g/m�;20160102 20:00;20160102 21:00;1;0.2
H2S;uur;�g/m�;20160102 21:00;20160102 22:00;0.9;0.2
H2S;uur;�g/m�;20160102 22:00;20160102 23:00;0.6;0.3
H2S;uur;�g/m�;20160102 23:00;20160103 00:00;0.9;0.1
H2S;uur;�g/m�;20160103 00:00;20160103 01:00;0.5;0.1
H2S;uur;�g/m�;20160103 01:00;20160103 02:00;1;0
H2S;uur;�g/m�;20160103 02:00;20160103 03:00;0.4;0
H2S;uur;�g/m�;20160103 03:00;20160103 04:00;0.5;0.2
H2S;uur;�g/m�;20160103 04:00;20160103 05:00;0.7;0.1
H2S;uur;�g/m�;20160103 05:00;20160103 06:00;0.3;0.1
H2S;uur;�g/m�;20160103 06:00;20160103 07:00;0.3;0.5
H2S;uur;�g/m�;20160103 07:00;20160103 08:00;0.3;0.2
H2S;uur;�g/m�;20160103 08:00;20160103 09:00;0.2;1.8
H2S;uur;�g/m�;20160103 09:00;20160103 10:00;0.3;6
H2S;uur;�g/m�;20160103 10:00;20160103 11:00;0.5;0.3
H2S;uur;�g/m�;20160103 11:00;20160103 12:00;0.4;0.3
H2S;uur;�g/m�;20160103 12:00;20160103 13:00;0.6;0.2
H2S;uur;�g/m�;20160103 13:00;20160103 14:00;0.6;0.5
H2S;uur;�g/m�;20160103 14:00;20160103 15:00;0.5;0.4
H2S;uur;�g/m�;20160103 15:00;20160103 16:00;0.6;0.3
H2S;uur;�g/m�;20160103 16:00;20160103 17:00;0.6;
H2S;uur;�g/m�;20160103 17:00;20160103 18:00;0.5;0.8
H2S;uur;�g/m�;20160103 18:00;20160103 19:00;0.5;0.7
H2S;uur;�g/m�;20160103 19:00;20160103 20:00;0.7;0.9
H2S;uur;�g/m�;20160103 20:00;20160103 21:00;0.3;0.8
H2S;uur;�g/m�;20160103 21:00;20160103 22:00;0.4;1.1
H2S;uur;�g/m�;20160103 22:00;20160103 23:00;0.5;0.5
H2S;uur;�g/m�;20160103 23:00;20160104 00:00;0.5;0.6
H2S;uur;�g/m�;20160104 00:00;20160104 01:00;0.1;0.8
H2S;uur;�g/m�;20160104 01:00;20160104 02:00;0.3;0.9
H2S;uur;�g/m�;20160104 02:00;20160104 03:00;0.3;1
H2S;uur;�g/m�;20160104 03:00;20160104 04:00;0.2;0.9
H2S;uur;�g/m�;20160104 04:00;20160104 05:00;0.3;0.7
H2S;uur;�g/m�;20160104 05:00;20160104 06:00;0.3;0.8
H2S;uur;�g/m�;20160104 06:00;20160104 07:00;0.3;0.9
H2S;uur;�g/m�;20160104 07:00;20160104 08:00;0.6;1
H2S;uur;�g/m�;20160104 08:00;20160104 09:00;0.6;0.8
H2S;uur;�g/m�;20160104 09:00;20160104 10:00;0.6;0.9
H2S;uur;�g/m�;20160104 10:00;20160104 11:00;0.5;1.4
H2S;uur;�g/m�;20160104 11:00;20160104 12:00;1;1.3
H2S;uur;�g/m�;20160104 12:00;20160104 13:00;0.6;1.2
H2S;uur;�g/m�;20160104 13:00;20160104 14:00;0.6;1.1
H2S;uur;�g/m�;20160104 14:00;20160104 15:00;1;1.1
H2S;uur;�g/m�;20160104 15:00;20160104 16:00;0.9;1.6
H2S;uur;�g/m�;20160104 16:00;20160104 17:00;1.6;1.6
H2S;uur;�g/m�;20160104 17:00;20160104 18:00;0.9;1.7
H2S;uur;�g/m�;20160104 18:00;20160104 19:00;1;1.8
H2S;uur;�g/m�;20160104 19:00;20160104 20:00;1.2;1.6
H2S;uur;�g/m�;20160104 20:00;20160104 21:00;;1.4
H2S;uur;�g/m�;20160104 21:00;20160104 22:00;0.5;1.5
H2S;uur;�g/m�;20160104 22:00;20160104 23:00;0.4;1.5
H2S;uur;�g/m�;20160104 23:00;20160105 00:00;0.6;1.1
H2S;uur;�g/m�;20160105 00:00;20160105 01:00;0.7;0.8
H2S;uur;�g/m�;20160105 01:00;20160105 02:00;0.6;1.3
H2S;uur;�g/m�;20160105 02:00;20160105 03:00;0.4;1.3
H2S;uur;�g/m�;20160105 03:00;20160105 04:00;0.4;1.3
H2S;uur;�g/m�;20160105 04:00;20160105 05:00;0.4;1
H2S;uur;�g/m�;20160105 05:00;20160105 06:00;0.6;2
H2S;uur;�g/m�;20160105 06:00;20160105 07:00;0.6;2.1
H2S;uur;�g/m�;20160105 07:00;20160105 08:00;1.1;2.1
H2S;uur;�g/m�;20160105 08:00;20160105 09:00;0.6;1.6
H2S;uur;�g/m�;20160105 09:00;20160105 10:00;0.5;1.2
H2S;uur;�g/m�;20160105 10:00;20160105 11:00;0.5;1.7
H2S;uur;�g/m�;20160105 11:00;20160105 12:00;0.4;1.4
H2S;uur;�g/m�;20160105 12:00;20160105 13:00;0.5;1.4
H2S;uur;�g/m�;20160105 13:00;20160105 14:00;0.6;1.3
H2S;uur;�g/m�;20160105 14:00;20160105 15:00;0.7;0.8
H2S;uur;�g/m�;20160105 15:00;20160105 16:00;0.5;0.8
H2S;uur;�g/m�;20160105 16:00;20160105 17:00;0.7;1.1
H2S;uur;�g/m�;20160105 17:00;20160105 18:00;0.5;1.1
H2S;uur;�g/m�;20160105 18:00;20160105 19:00;0.7;
H2S;uur;�g/m�;20160105 19:00;20160105 20:00;0.6;3.1
H2S;uur;�g/m�;20160105 20:00;20160105 21:00;0.9;3.1
H2S;uur;�g/m�;20160105 21:00;20160105 22:00;1.1;2.9
H2S;uur;�g/m�;20160105 22:00;20160105 23:00;1.3;2.7
H2S;uur;�g/m�;20160105 23:00;20160106 00:00;0.9;2.5
H2S;uur;�g/m�;20160106 00:00;20160106 01:00;0.9;3.1
H2S;uur;�g/m�;20160106 01:00;20160106 02:00;0.8;2.8
H2S;uur;�g/m�;20160106 02:00;20160106 03:00;1;3
H2S;uur;�g/m�;20160106 03:00;20160106 04:00;0.9;2.9
H2S;uur;�g/m�;20160106 04:00;20160106 05:00;0.9;3
H2S;uur;�g/m�;20160106 05:00;20160106 06:00;1;2.9
H2S;uur;�g/m�;20160106 06:00;20160106 07:00;0.9;2.4
H2S;uur;�g/m�;20160106 07:00;20160106 08:00;0.8;2.8
H2S;uur;�g/m�;20160106 08:00;20160106 09:00;0.9;2.8
H2S;uur;�g/m�;20160106 09:00;20160106 10:00;0.9;3
H2S;uur;�g/m�;20160106 10:00;20160106 11:00;0.8;2.7
H2S;uur;�g/m�;20160106 11:00;20160106 12:00;1.2;2.9
H2S;uur;�g/m�;20160106 12:00;20160106 13:00;1.2;3.1
H2S;uur;�g/m�;20160106 13:00;20160106 14:00;0.7;2.9
H2S;uur;�g/m�;20160106 14:00;20160106 15:00;0.9;2.9
H2S;uur;�g/m�;20160106 15:00;20160106 16:00;1;3.1
H2S;uur;�g/m�;20160106 16:00;20160106 17:00;1;2.8
H2S;uur;�g/m�;20160106 17:00;20160106 18:00;1;2.5
H2S;uur;�g/m�;20160106 18:00;20160106 19:00;1.3;2.8
H2S;uur;�g/m�;20160106 19:00;20160106 20:00;1.2;2.6
H2S;uur;�g/m�;20160106 20:00;20160106 21:00;1;3.4
H2S;uur;�g/m�;20160106 21:00;20160106 22:00;1;2.7
H2S;uur;�g/m�;20160106 22:00;20160106 23:00;;2.8
H2S;uur;�g/m�;20160106 23:00;20160107 00:00;1.7;2.7
H2S;uur;�g/m�;20160107 00:00;20160107 01:00;1.8;2.7
H2S;uur;�g/m�;20160107 01:00;20160107 02:00;1.6;3
H2S;uur;�g/m�;20160107 02:00;20160107 03:00;1.8;2.8
H2S;uur;�g/m�;20160107 03:00;20160107 04:00;1.4;2.9
H2S;uur;�g/m�;20160107 04:00;20160107 05:00;1.4;2.8
H2S;uur;�g/m�;20160107 05:00;20160107 06:00;1;2.2
H2S;uur;�g/m�;20160107 06:00;20160107 07:00;0.9;2.6
H2S;uur;�g/m�;20160107 07:00;20160107 08:00;0.8;2.6
H2S;uur;�g/m�;20160107 08:00;20160107 09:00;0.5;2.3
H2S;uur;�g/m�;20160107 09:00;20160107 10:00;0.5;2.4
H2S;uur;�g/m�;20160107 10:00;20160107 11:00;0.7;2
H2S;uur;�g/m�;20160107 11:00;20160107 12:00;0.4;2.1
H2S;uur;�g/m�;20160107 12:00;20160107 13:00;0.3;2.1
H2S;uur;�g/m�;20160107 13:00;20160107 14:00;0.5;2.2
H2S;uur;�g/m�;20160107 14:00;20160107 15:00;0.4;2.1
H2S;uur;�g/m�;20160107 15:00;20160107 16:00;0.4;2.7
H2S;uur;�g/m�;20160107 16:00;20160107 17:00;0.3;2.4
H2S;uur;�g/m�;20160107 17:00;20160107 18:00;0.2;2.5
H2S;uur;�g/m�;20160107 18:00;20160107 19:00;0.2;1.6
H2S;uur;�g/m�;20160107 19:00;20160107 20:00;0.1;1.4
H2S;uur;�g/m�;20160107 20:00;20160107 21:00;0.1;
H2S;uur;�g/m�;20160107 21:00;20160107 22:00;0.2;0.1
H2S;uur;�g/m�;20160107 22:00;20160107 23:00;0.3;0.1
H2S;uur;�g/m�;20160107 23:00;20160108 00:00;0.1;0.1
H2S;uur;�g/m�;20160108 00:00;20160108 01:00;0.2;0.1
H2S;uur;�g/m�;20160108 01:00;20160108 02:00;0.2;0
H2S;uur;�g/m�;20160108 02:00;20160108 03:00;0.2;0.3
H2S;uur;�g/m�;20160108 03:00;20160108 04:00;0.1;0.1
H2S;uur;�g/m�;20160108 04:00;20160108 05:00;0.2;0.1
H2S;uur;�g/m�;20160108 05:00;20160108 06:00;0.5;0.1
H2S;uur;�g/m�;20160108 06:00;20160108 07:00;0.3;0
H2S;uur;�g/m�;20160108 07:00;20160108 08:00;0.2;0.2
H2S;uur;�g/m�;20160108 08:00;20160108 09:00;0.4;0.1
H2S;uur;�g/m�;20160108 09:00;20160108 10:00;0.4;0.2
H2S;uur;�g/m�;20160108 10:00;20160108 11:00;0.8;0
H2S;uur;�g/m�;20160108 11:00;20160108 12:00;0.5;0.1
H2S;uur;�g/m�;20160108 12:00;20160108 13:00;0.3;0
H2S;uur;�g/m�;20160108 13:00;20160108 14:00;1.1;0.9
H2S;uur;�g/m�;20160108 14:00;20160108 15:00;1;1.9
H2S;uur;�g/m�;20160108 15:00;20160108 16:00;0.4;0.6
H2S;uur;�g/m�;20160108 16:00;20160108 17:00;0.8;2.5
H2S;uur;�g/m�;20160108 17:00;20160108 18:00;0.7;2.3
H2S;uur;�g/m�;20160108 18:00;20160108 19:00;0.9;0.6
H2S;uur;�g/m�;20160108 19:00;20160108 20:00;1.2;0.9
H2S;uur;�g/m�;20160108 20:00;20160108 21:00;0.7;0.5
H2S;uur;�g/m�;20160108 21:00;20160108 22:00;1;0.6
H2S;uur;�g/m�;20160108 22:00;20160108 23:00;1.4;0.3
H2S;uur;�g/m�;20160108 23:00;20160109 00:00;1;0.9
H2S;uur;�g/m�;20160109 00:00;20160109 01:00;;0.7
H2S;uur;�g/m�;20160109 01:00;20160109 02:00;0.5;0.6
H2S;uur;�g/m�;20160109 02:00;20160109 03:00;0.6;0.8
H2S;uur;�g/m�;20160109 03:00;20160109 04:00;0.5;0.4
H2S;uur;�g/m�;20160109 04:00;20160109 05:00;0.4;0.5
H2S;uur;�g/m�;20160109 05:00;20160109 06:00;0.5;0.3
H2S;uur;�g/m�;20160109 06:00;20160109 07:00;0.3;0.1
H2S;uur;�g/m�;20160109 07:00;20160109 08:00;0.3;0.3
H2S;uur;�g/m�;20160109 08:00;20160109 09:00;0.2;0.2
H2S;uur;�g/m�;20160109 09:00;20160109 10:00;0.3;0.1
H2S;uur;�g/m�;20160109 10:00;20160109 11:00;0.2;0.3
H2S;uur;�g/m�;20160109 11:00;20160109 12:00;0.4;0.2
H2S;uur;�g/m�;20160109 12:00;20160109 13:00;0.4;0.2
H2S;uur;�g/m�;20160109 13:00;20160109 14:00;0.3;0.5
H2S;uur;�g/m�;20160109 14:00;20160109 15:00;0.3;0.4
H2S;uur;�g/m�;20160109 15:00;20160109 16:00;0.4;0.2
H2S;uur;�g/m�;20160109 16:00;20160109 17:00;0.2;0.2
H2S;uur;�g/m�;20160109 17:00;20160109 18:00;0.2;0.4
H2S;uur;�g/m�;20160109 18:00;20160109 19:00;0.2;0.8
H2S;uur;�g/m�;20160109 19:00;20160109 20:00;0.4;0.8
H2S;uur;�g/m�;20160109 20:00;20160109 21:00;0.1;0.5
H2S;uur;�g/m�;20160109 21:00;20160109 22:00;0.1;0.1
H2S;uur;�g/m�;20160109 22:00;20160109 23:00;0.2;
H2S;uur;�g/m�;20160109 23:00;20160110 00:00;0.4;0.6
H2S;uur;�g/m�;20160110 00:00;20160110 01:00;0.2;1
H2S;uur;�g/m�;20160110 01:00;20160110 02:00;0.1;0.6
H2S;uur;�g/m�;20160110 02:00;20160110 03:00;0.1;1.4
H2S;uur;�g/m�;20160110 03:00;20160110 04:00;0.1;0.9
H2S;uur;�g/m�;20160110 04:00;20160110 05:00;0.2;4.1
H2S;uur;�g/m�;20160110 05:00;20160110 06:00;0.2;5.7
H2S;uur;�g/m�;20160110 06:00;20160110 07:00;0.1;3.4
H2S;uur;�g/m�;20160110 07:00;20160110 08:00;0.1;3.3
H2S;uur;�g/m�;20160110 08:00;20160110 09:00;0.2;6.6
H2S;uur;�g/m�;20160110 09:00;20160110 10:00;0.2;4.2
H2S;uur;�g/m�;20160110 10:00;20160110 11:00;0.3;3.3
H2S;uur;�g/m�;20160110 11:00;20160110 12:00;0.1;4.9
H2S;uur;�g/m�;20160110 12:00;20160110 13:00;0.3;3.9
H2S;uur;�g/m�;20160110 13:00;20160110 14:00;0.2;2.6
H2S;uur;�g/m�;20160110 14:00;20160110 15:00;0.1;2.4
H2S;uur;�g/m�;20160110 15:00;20160110 16:00;0.2;4.7
H2S;uur;�g/m�;20160110 16:00;20160110 17:00;0.1;4.9
H2S;uur;�g/m�;20160110 17:00;20160110 18:00;0.2;4.7
H2S;uur;�g/m�;20160110 18:00;20160110 19:00;0.3;0.7
H2S;uur;�g/m�;20160110 19:00;20160110 20:00;0.2;1.5
H2S;uur;�g/m�;20160110 20:00;20160110 21:00;0.6;0.9
H2S;uur;�g/m�;20160110 21:00;20160110 22:00;0.5;1.9
H2S;uur;�g/m�;20160110 22:00;20160110 23:00;0.1;4.5
H2S;uur;�g/m�;20160110 23:00;20160111 00:00;0.2;4.2
H2S;uur;�g/m�;20160111 00:00;20160111 01:00;0.1;5.2
H2S;uur;�g/m�;20160111 01:00;20160111 02:00;0.2;3.6
H2S;uur;�g/m�;20160111 02:00;20160111 03:00;;4.9
H2S;uur;�g/m�;20160111 03:00;20160111 04:00;0.7;2.4
H2S;uur;�g/m�;20160111 04:00;20160111 05:00;0.4;1.6
H2S;uur;�g/m�;20160111 05:00;20160111 06:00;0.6;1.7
H2S;uur;�g/m�;20160111 06:00;20160111 07:00;0.8;1.8
H2S;uur;�g/m�;20160111 07:00;20160111 08:00;0.8;1
H2S;uur;�g/m�;20160111 08:00;20160111 09:00;0.5;0.8
H2S;uur;�g/m�;20160111 09:00;20160111 10:00;0.7;1.3
H2S;uur;�g/m�;20160111 10:00;20160111 11:00;0.5;1.2
H2S;uur;�g/m�;20160111 11:00;20160111 12:00;0.7;1.1
H2S;uur;�g/m�;20160111 12:00;20160111 13:00;0.7;1.8
H2S;uur;�g/m�;20160111 13:00;20160111 14:00;0.6;1.2
H2S;uur;�g/m�;20160111 14:00;20160111 15:00;1;0.9
H2S;uur;�g/m�;20160111 15:00;20160111 16:00;0.7;1.4
H2S;uur;�g/m�;20160111 16:00;20160111 17:00;0.7;1.2
H2S;uur;�g/m�;20160111 17:00;20160111 18:00;0.7;1.3
H2S;uur;�g/m�;20160111 18:00;20160111 19:00;0.3;1.9
H2S;uur;�g/m�;20160111 19:00;20160111 20:00;0.3;3.2
H2S;uur;�g/m�;20160111 20:00;20160111 21:00;0.3;0.7
H2S;uur;�g/m�;20160111 21:00;20160111 22:00;0.5;0.6
H2S;uur;�g/m�;20160111 22:00;20160111 23:00;0.5;0.8
H2S;uur;�g/m�;20160111 23:00;20160112 00:00;0.4;0.7
H2S;uur;�g/m�;20160112 00:00;20160112 01:00;0.7;
H2S;uur;�g/m�;20160112 01:00;20160112 02:00;0.5;0
H2S;uur;�g/m�;20160112 02:00;20160112 03:00;0.5;0
H2S;uur;�g/m�;20160112 03:00;20160112 04:00;0.3;0
H2S;uur;�g/m�;20160112 04:00;20160112 05:00;0.5;0
H2S;uur;�g/m�;20160112 05:00;20160112 06:00;0.5;0
H2S;uur;�g/m�;20160112 06:00;20160112 07:00;0.6;0
H2S;uur;�g/m�;20160112 07:00;20160112 08:00;0.5;0
H2S;uur;�g/m�;20160112 08:00;20160112 09:00;0.3;0
H2S;uur;�g/m�;20160112 09:00;20160112 10:00;0.1;0
H2S;uur;�g/m�;20160112 10:00;20160112 11:00;0.7;0
H2S;uur;�g/m�;20160112 11:00;20160112 12:00;0.6;0
H2S;uur;�g/m�;20160112 12:00;20160112 13:00;0.4;0
H2S;uur;�g/m�;20160112 13:00;20160112 14:00;0.4;0
H2S;uur;�g/m�;20160112 14:00;20160112 15:00;0.4;0
H2S;uur;�g/m�;20160112 15:00;20160112 16:00;0.4;0
H2S;uur;�g/m�;20160112 16:00;20160112 17:00;0.3;0
H2S;uur;�g/m�;20160112 17:00;20160112 18:00;0.4;0
H2S;uur;�g/m�;20160112 18:00;20160112 19:00;0.7;0
H2S;uur;�g/m�;20160112 19:00;20160112 20:00;0.5;0
H2S;uur;�g/m�;20160112 20:00;20160112 21:00;0.3;0
H2S;uur;�g/m�;20160112 21:00;20160112 22:00;0.5;0
H2S;uur;�g/m�;20160112 22:00;20160112 23:00;0.5;0
H2S;uur;�g/m�;20160112 23:00;20160113 00:00;0.5;0
H2S;uur;�g/m�;20160113 00:00;20160113 01:00;0.9;0
H2S;uur;�g/m�;20160113 01:00;20160113 02:00;4.7;0
H2S;uur;�g/m�;20160113 02:00;20160113 03:00;1.8;0
H2S;uur;�g/m�;20160113 03:00;20160113 04:00;4.8;0
H2S;uur;�g/m�;20160113 04:00;20160113 05:00;;0
H2S;uur;�g/m�;20160113 05:00;20160113 06:00;3.5;0
H2S;uur;�g/m�;20160113 06:00;20160113 07:00;4.3;0
H2S;uur;�g/m�;20160113 07:00;20160113 08:00;1.6;0
H2S;uur;�g/m�;20160113 08:00;20160113 09:00;1.5;0
H2S;uur;�g/m�;20160113 09:00;20160113 10:00;0.6;0
H2S;uur;�g/m�;20160113 10:00;20160113 11:00;0;0
H2S;uur;�g/m�;20160113 11:00;20160113 12:00;0;0
H2S;uur;�g/m�;20160113 12:00;20160113 13:00;0;0
H2S;uur;�g/m�;20160113 13:00;20160113 14:00;0;0
H2S;uur;�g/m�;20160113 14:00;20160113 15:00;0;0
H2S;uur;�g/m�;20160113 15:00;20160113 16:00;0;0
H2S;uur;�g/m�;20160113 16:00;20160113 17:00;0;0
H2S;uur;�g/m�;20160113 17:00;20160113 18:00;0;0
H2S;uur;�g/m�;20160113 18:00;20160113 19:00;0;0
H2S;uur;�g/m�;20160113 19:00;20160113 20:00;0;0
H2S;uur;�g/m�;20160113 20:00;20160113 21:00;0;0
H2S;uur;�g/m�;20160113 21:00;20160113 22:00;0;0
H2S;uur;�g/m�;20160113 22:00;20160113 23:00;0;0
H2S;uur;�g/m�;20160113 23:00;20160114 00:00;0;3
H2S;uur;�g/m�;20160114 00:00;20160114 01:00;0.3;8.2
H2S;uur;�g/m�;20160114 01:00;20160114 02:00;0.2;0.1
H2S;uur;�g/m�;20160114 02:00;20160114 03:00;0;0.1
H2S;uur;�g/m�;20160114 03:00;20160114 04:00;0;0.4
H2S;uur;�g/m�;20160114 04:00;20160114 05:00;0;0.4
H2S;uur;�g/m�;20160114 05:00;20160114 06:00;0;0.3
H2S;uur;�g/m�;20160114 06:00;20160114 07:00;0;0.2
H2S;uur;�g/m�;20160114 07:00;20160114 08:00;0;0
H2S;uur;�g/m�;20160114 08:00;20160114 09:00;0;0
H2S;uur;�g/m�;20160114 09:00;20160114 10:00;0;1.7
H2S;uur;�g/m�;20160114 10:00;20160114 11:00;0;1.8
H2S;uur;�g/m�;20160114 11:00;20160114 12:00;0;0.5
H2S;uur;�g/m�;20160114 12:00;20160114 13:00;0;0
H2S;uur;�g/m�;20160114 13:00;20160114 14:00;0;1.2
H2S;uur;�g/m�;20160114 14:00;20160114 15:00;0;3.4
H2S;uur;�g/m�;20160114 15:00;20160114 16:00;0;3.6
H2S;uur;�g/m�;20160114 16:00;20160114 17:00;0;0.3
H2S;uur;�g/m�;20160114 17:00;20160114 18:00;0;0
H2S;uur;�g/m�;20160114 18:00;20160114 19:00;0;0
H2S;uur;�g/m�;20160114 19:00;20160114 20:00;0;0
H2S;uur;�g/m�;20160114 20:00;20160114 21:00;0;0
H2S;uur;�g/m�;20160114 21:00;20160114 22:00;1.4;0
H2S;uur;�g/m�;20160114 22:00;20160114 23:00;4.8;0
H2S;uur;�g/m�;20160114 23:00;20160115 00:00;0.3;0
H2S;uur;�g/m�;20160115 00:00;20160115 01:00;0.4;0
H2S;uur;�g/m�;20160115 01:00;20160115 02:00;0.5;0
H2S;uur;�g/m�;20160115 02:00;20160115 03:00;0.1;0
H2S;uur;�g/m�;20160115 03:00;20160115 04:00;0;0
H2S;uur;�g/m�;20160115 04:00;20160115 05:00;0.2;0
H2S;uur;�g/m�;20160115 05:00;20160115 06:00;1.5;0
H2S;uur;�g/m�;20160115 06:00;20160115 07:00;;0
H2S;uur;�g/m�;20160115 07:00;20160115 08:00;0.7;0
H2S;uur;�g/m�;20160115 08:00;20160115 09:00;1.5;0
H2S;uur;�g/m�;20160115 09:00;20160115 10:00;0.3;0
H2S;uur;�g/m�;20160115 10:00;20160115 11:00;2;0
H2S;uur;�g/m�;20160115 11:00;20160115 12:00;0.7;0
H2S;uur;�g/m�;20160115 12:00;20160115 13:00;1.9;0
H2S;uur;�g/m�;20160115 13:00;20160115 14:00;2;0
H2S;uur;�g/m�;20160115 14:00;20160115 15:00;2.7;0
H2S;uur;�g/m�;20160115 15:00;20160115 16:00;1.2;0
H2S;uur;�g/m�;20160115 16:00;20160115 17:00;1;0
H2S;uur;�g/m�;20160115 17:00;20160115 18:00;1.1;0
H2S;uur;�g/m�;20160115 18:00;20160115 19:00;1.5;0
H2S;uur;�g/m�;20160115 19:00;20160115 20:00;3.3;0
H2S;uur;�g/m�;20160115 20:00;20160115 21:00;0.5;0
H2S;uur;�g/m�;20160115 21:00;20160115 22:00;1.5;0
H2S;uur;�g/m�;20160115 22:00;20160115 23:00;3.5;0
H2S;uur;�g/m�;20160115 23:00;20160116 00:00;2.8;0
H2S;uur;�g/m�;20160116 00:00;20160116 01:00;1;0
H2S;uur;�g/m�;20160116 01:00;20160116 02:00;0.1;2
H2S;uur;�g/m�;20160116 02:00;20160116 03:00;0;0
H2S;uur;�g/m�;20160116 03:00;20160116 04:00;0.1;0
H2S;uur;�g/m�;20160116 04:00;20160116 05:00;0.1;
H2S;uur;�g/m�;20160116 05:00;20160116 06:00;1.5;
H2S;uur;�g/m�;20160116 06:00;20160116 07:00;5.2;
H2S;uur;�g/m�;20160116 07:00;20160116 08:00;3.9;
H2S;uur;�g/m�;20160116 08:00;20160116 09:00;8.4;
H2S;uur;�g/m�;20160116 09:00;20160116 10:00;5.1;
H2S;uur;�g/m�;20160116 10:00;20160116 11:00;3.7;
H2S;uur;�g/m�;20160116 11:00;20160116 12:00;4.1;
H2S;uur;�g/m�;20160116 12:00;20160116 13:00;2.6;
H2S;uur;�g/m�;20160116 13:00;20160116 14:00;5.2;
H2S;uur;�g/m�;20160116 14:00;20160116 15:00;6;
H2S;uur;�g/m�;20160116 15:00;20160116 16:00;7.4;
H2S;uur;�g/m�;20160116 16:00;20160116 17:00;4.5;
H2S;uur;�g/m�;20160116 17:00;20160116 18:00;8;
H2S;uur;�g/m�;20160116 18:00;20160116 19:00;2.2;
H2S;uur;�g/m�;20160116 19:00;20160116 20:00;4.9;
H2S;uur;�g/m�;20160116 20:00;20160116 21:00;0.8;
H2S;uur;�g/m�;20160116 21:00;20160116 22:00;4;
H2S;uur;�g/m�;20160116 22:00;20160116 23:00;4.7;
H2S;uur;�g/m�;20160116 23:00;20160117 00:00;4.2;
H2S;uur;�g/m�;20160117 00:00;20160117 01:00;4.5;
H2S;uur;�g/m�;20160117 01:00;20160117 02:00;2.4;
H2S;uur;�g/m�;20160117 02:00;20160117 03:00;1.8;
H2S;uur;�g/m�;20160117 03:00;20160117 04:00;1.3;
H2S;uur;�g/m�;20160117 04:00;20160117 05:00;1.5;
H2S;uur;�g/m�;20160117 05:00;20160117 06:00;1.2;
H2S;uur;�g/m�;20160117 06:00;20160117 07:00;2.7;
H2S;uur;�g/m�;20160117 07:00;20160117 08:00;2.5;
H2S;uur;�g/m�;20160117 08:00;20160117 09:00;;
H2S;uur;�g/m�;20160117 09:00;20160117 10:00;0.6;
H2S;uur;�g/m�;20160117 10:00;20160117 11:00;1.2;
H2S;uur;�g/m�;20160117 11:00;20160117 12:00;0.9;
H2S;uur;�g/m�;20160117 12:00;20160117 13:00;0.3;
H2S;uur;�g/m�;20160117 13:00;20160117 14:00;0;
H2S;uur;�g/m�;20160117 14:00;20160117 15:00;0;
H2S;uur;�g/m�;20160117 15:00;20160117 16:00;0;0.4
H2S;uur;�g/m�;20160117 16:00;20160117 17:00;0;0.4
H2S;uur;�g/m�;20160117 17:00;20160117 18:00;0.3;0.6
H2S;uur;�g/m�;20160117 18:00;20160117 19:00;0.1;0.9
H2S;uur;�g/m�;20160117 19:00;20160117 20:00;0.1;1.7
H2S;uur;�g/m�;20160117 20:00;20160117 21:00;0.3;1.4
H2S;uur;�g/m�;20160117 21:00;20160117 22:00;0.3;1.2
H2S;uur;�g/m�;20160117 22:00;20160117 23:00;0.1;1.2
H2S;uur;�g/m�;20160117 23:00;20160118 00:00;0.1;2.6
H2S;uur;�g/m�;20160118 00:00;20160118 01:00;0.1;1.6
H2S;uur;�g/m�;20160118 01:00;20160118 02:00;0.1;0.9
H2S;uur;�g/m�;20160118 02:00;20160118 03:00;0.2;2.3
H2S;uur;�g/m�;20160118 03:00;20160118 04:00;0;1.3
H2S;uur;�g/m�;20160118 04:00;20160118 05:00;0.2;1.6
H2S;uur;�g/m�;20160118 05:00;20160118 06:00;0.3;1.5
H2S;uur;�g/m�;20160118 06:00;20160118 07:00;0.4;
H2S;uur;�g/m�;20160118 07:00;20160118 08:00;0.3;2.1
H2S;uur;�g/m�;20160118 08:00;20160118 09:00;0.8;2.4
H2S;uur;�g/m�;20160118 09:00;20160118 10:00;0.9;2
H2S;uur;�g/m�;20160118 10:00;20160118 11:00;0.7;2.5
H2S;uur;�g/m�;20160118 11:00;20160118 12:00;0.6;2
H2S;uur;�g/m�;20160118 12:00;20160118 13:00;0.5;2.3
H2S;uur;�g/m�;20160118 13:00;20160118 14:00;0.6;2.1
H2S;uur;�g/m�;20160118 14:00;20160118 15:00;0.5;1.8
H2S;uur;�g/m�;20160118 15:00;20160118 16:00;0.6;1.6
H2S;uur;�g/m�;20160118 16:00;20160118 17:00;0.4;1.7
H2S;uur;�g/m�;20160118 17:00;20160118 18:00;0.4;1.9
H2S;uur;�g/m�;20160118 18:00;20160118 19:00;0.3;1.5
H2S;uur;�g/m�;20160118 19:00;20160118 20:00;0.3;1.5
H2S;uur;�g/m�;20160118 20:00;20160118 21:00;0.4;1.7
H2S;uur;�g/m�;20160118 21:00;20160118 22:00;0.6;2
H2S;uur;�g/m�;20160118 22:00;20160118 23:00;0.7;2.1
H2S;uur;�g/m�;20160118 23:00;20160119 00:00;0.8;2.8
H2S;uur;�g/m�;20160119 00:00;20160119 01:00;0.5;2.8
H2S;uur;�g/m�;20160119 01:00;20160119 02:00;0.7;3.1
H2S;uur;�g/m�;20160119 02:00;20160119 03:00;0.6;2.1
H2S;uur;�g/m�;20160119 03:00;20160119 04:00;0.1;3.6
H2S;uur;�g/m�;20160119 04:00;20160119 05:00;0.7;3.1
H2S;uur;�g/m�;20160119 05:00;20160119 06:00;0.5;3.1
H2S;uur;�g/m�;20160119 06:00;20160119 07:00;0.6;4
H2S;uur;�g/m�;20160119 07:00;20160119 08:00;0.7;3
H2S;uur;�g/m�;20160119 08:00;20160119 09:00;0.5;2.5
H2S;uur;�g/m�;20160119 09:00;20160119 10:00;0.7;2.8
H2S;uur;�g/m�;20160119 10:00;20160119 11:00;;2.7
H2S;uur;�g/m�;20160119 11:00;20160119 12:00;1.1;5.1
H2S;uur;�g/m�;20160119 12:00;20160119 13:00;0.5;7.5
H2S;uur;�g/m�;20160119 13:00;20160119 14:00;1;3.3
H2S;uur;�g/m�;20160119 14:00;20160119 15:00;0.3;0.9